Vorticity
-7 0 12 3 1 0 -2 -3 5 28 14 11 9 -1 4 12 13 11 19 5 -1 7 0 -4 1 10 -3 2 2 15 28 5 7 5 11 -1 6 12 11 2 7 7 5 8
0 11 12 4 1 0 -4 -7 3 25 21 1 14 -9 28 -5 24 8 16 3 3 11 0 -3 4 -1 4 -4 8 9 13 5 7 5 4 7 -1 5 4 10 8 14 7 6
0 15 7 21 3 -1 0 3 4 24 6 23 14 24 21 9 10 17 14 10 3 2 4 6 3 -7 7 15 9 6 5 17 7 3 9 7 4 6 5 4 8 11 7 8
10 -1 13 4 9 -6 -5 5 -6 10 -2 -22 4 8 11 18 10 18 12 5 7 4 -6 7 -1 3 -9 12 -7 3 14 7 9 6 5 10 -2 7 3 5 6 6 7 6
13 23 12 2 20 -5 25 -2 4 15 37 8 -3 -2 39 15 9 3 16 12 2 0 7 4 4 8 2 -3 16 2 9 10 8 6 5 8 -1 8 5 8 10 8 5 6
2 8 -4 28 4 4 8 -2 21 33 33 -6 5 -20 41 -7 17 2 9 14 9 11 2 1 5 -1 7 9 -8 6 12 4 6 8 6 4 9 4 13 11 1 10 9 10
21 8 12 0 -3 15 4 -10 19 6 14 0 41 36 -50 36 12 2 12 -9 21 1 17 9 -2 4 8 1 11 15 14 8 15 9 8 5 12 5 7 7 4 4 8 8
18 30 15 1 19 12 13 15 -17 10 9 20 46 11 4 40 18 5 12 -10 19 5 8 7 4 6 13 5 -9 8 14 -6 25 17 8 7 4 7 6 8 12 7 3 10
-2 24 12 9 22 2 15 14 2 -11 -1 28 15 25 20 31 12 5 14 -19 -15 28 13 9 4 8 14 -2 9 -5 3 -5 25 14 10 6 5 11 4 3 5 7 7 8
19 22 8 18 29 9 -2 6 21 4 5 6 30 1 17 20 18 7 1 0 12 18 7 16 2 10 11 11 6 2 8 1 19 14 13 11 5 8 8 4 -2 6 3 12
8 0 30 24 14 5 11 4 5 10 12 5 8 4 4 20 10 8 -5 2 13 10 10 6 15 5 43 -8 15 14 2 -1 -2 7 7 12 9 9 8 9 5 4 7 4
13 -1 12 8 5 27 26 30 33 8 -1 20 26 18 16 11 8 11 16 9 9 12 8 15 12 -8 3 -9 45 5 20 6 -2 12 7 7 6 6 8 10 16 8 6 11
5 9 19 31 2 8 2 2 2 13 28 2 -16 23 -2 12 13 1 9 17 14 3 4 11 9 18 32 -16 -4 26 28 13 11 -5 13 6 5 4 4 4 9 10 9 11
5 9 8 30 1 7 1 26 0 -4 13 26 6 20 6 2 4 10 -3 9 13 19 24 10 15 7 13 4 12 40 9 27 31 -4 3 10 6 5 7 5 5 4 5 6
11 15 5 -5 -5 -9 6 14 25 5 -2 3 -2 0 8 20 14 1 4 8 14 16 6 13 13 13 8 4 4 4 -12 0 13 77 8 1 10 8 8 5 6 4 4 5
10 4 24 21 -14 -26 -8 15 34 44 30 -17 28 8 12 13 8 10 14 17 15 13 12 10 18 20 15 0 14 32 2 13 -11 -3 4 58 9 2 7 6 4 -1 2 4
5 14 17 -2 30 33 6 1 21 31 17 25 11 10 9 4 15 21 26 10 19 11 13 16 12 10 15 10 5 -2 7 3 2 0 27 28 6 33 13 -9 -6 33 1 6
-6 7 13 5 26 7 32 -32 13 6 11 9 26 2 17 15 11 14 11 6 3 11 17 12 11 15 11 13 14 11 0 -5 -4 11 16 -5 -4 17 21 -2 -1 18 17 0
2 0 0 9 9 -6 6 39 -2 -19 13 26 18 14 4 0 -1 7 10 7 14 10 6 7 8 8 9 12 13 23 21 20 22 25 19 7 -5 -4 16 -40 36 15 -11 -1
26 20 10 -2 10 3 7 14 19 54 -21 14 1 2 6 7 3 -2 -1 4 5 7 6 6 6 5 4 4 5 5 3 5 7 9 12 22 25 22 -12 3 -12 -8 -12 -8
23 3 11 18 9 17 9 3 3 11 31 -1 11 12 10 7 5 12 9 -2 3 1 4 7 5 2 1 1 1 3 3 3 6 4 3 7 7 14 20 17 15 18 12 16
9 7 18 13 11 12 20 14 11 13 17 22 11 2 13 4 -3 1 -11 -5 -1 -2 5 4 4 6 9 8 8 8 7 4 2 3 3 2 3 5 6 8 7 7 17 17
11 -4 7 -2 13 6 2 13 18 12 19 14 6 3 5 7 7 10 5 13 2 1 9 8 9 9 8 0 1 5 8 8 8 8 7 7 5 3 3 1 3 6 1 4
5 4 8 5 12 -3 5 15 12 8 6 5 3 10 10 8 4 9 5 4 5 1 6 12 14 12 12 13 14 14 14 14 12 10 10 10 8 7 6 5 5 5 4 1
-3 -2 5 4 7 10 6 3 9 17 -1 -1 7 9 -1 2 7 7 3 4 9 20 10 10 10 13 15 15 14 16 15 15 15 16 15 15 16 13 12 12 12 11 11 8
3 8 6 1 9 10 13 4 1 9 10 14 16 21 24 17 15 16 15 12 10 17 17 13 11 14 14 15 16 16 15 15 16 16 16 16 17 18 17 16 16 18 17 17
Height
3151 3153 3152 3157 3161 3165 3168 3171 3175 3177 3179 3181 3185 3185 3187 3188 3190 3195 3198 3202 3207 3210 3212 3216 3220 3223 3225 3228 3229 3230 3231 3231 3233 3235 3237 3240 3240 3241 3243 3243 3243 3243 3244 3245
3149 3149 3154 3159 3162 3164 3166 3169 3175 3178 3177 3181 3183 3186 3190 3187 3188 3192 3196 3201 3205 3208 3212 3214 3217 3221 3224 3227 3229 3231 3232 3232 3234 3235 3236 3238 3241 3242 3243 3243 3244 3245 3244 3245
3146 3150 3154 3155 3159 3162 3164 3168 3172 3176 3176 3178 3181 3183 3183 3185 3188 3192 3196 3200 3203 3207 3209 3213 3216 3220 3223 3225 3229 3230 3232 3232 3233 3234 3237 3238 3240 3242 3244 3245 3245 3245 3246 3245
3146 3149 3150 3154 3156 3161 3162 3167 3170 3173 3174 3175 3177 3178 3177 3181 3186 3189 3193 3198 3201 3205 3208 3210 3214 3218 3223 3225 3228 3229 3231 3232 3232 3234 3236 3239 3241 3242 3244 3245 3245 3245 3245 3244
3143 3145 3149 3151 3153 3159 3159 3165 3168 3169 3169 3172 3175 3175 3173 3179 3183 3186 3190 3195 3199 3203 3205 3208 3211 3216 3220 3224 3226 3227 3229 3231 3231 3233 3236 3238 3239 3241 3242 3245 3245 3246 3246 3245
3141 3144 3147 3149 3152 3155 3160 3163 3164 3164 3166 3169 3171 3173 3174 3171 3173 3181 3186 3191 3195 3199 3204 3207 3209 3213 3217 3221 3223 3225 3227 3230 3231 3232 3234 3237 3239 3240 3242 3244 3244 3247 3247 3246
3138 3138 3142 3146 3149 3151 3154 3159 3161 3166 3166 3166 3166 3171 3170 3172 3174 3177 3181 3187 3191 3195 3197 3203 3205 3208 3212 3216 3219 3223 3225 3227 3228 3229 3232 3235 3238 3240 3242 3243 3244 3246 3246 3246
3136 3137 3137 3142 3144 3147 3150 3154 3156 3159 3164 3161 3163 3165 3165 3166 3174 3180 3186 3184 3186 3191 3195 3198 3202 3205 3208 3212 3217 3220 3223 3225 3225 3226 3228 3233 3236 3238 3240 3241 3242 3244 3245 3245
3134 3133 3135 3137 3140 3144 3147 3149 3155 3156 3157 3155 3160 3164 3161 3163 3170 3175 3177 3177 3181 3184 3189 3193 3197 3200 3203 3208 3213 3217 3221 3224 3223 3224 3227 3230 3233 3236 3238 3240 3242 3242 3244 3245
3132 3132 3132 3135 3138 3142 3142 3149 3152 3153 3155 3157 3157 3158 3159 3161 3166 3168 3170 3175 3179 3181 3185 3188 3192 3196 3201 3203 3208 3213 3216 3221 3221 3222 3225 3228 3231 3234 3237 3238 3241 3242 3244 3245
3129 3131 3133 3134 3136 3138 3142 3144 3148 3150 3150 3151 3158 3161 3161 3164 3165 3168 3171 3174 3177 3181 3185 3188 3189 3194 3198 3201 3203 3207 3211 3214 3217 3218 3220 3223 3229 3233 3235 3237 3239 3240 3241 3244
3129 3130 3131 3131 3134 3135 3141 3144 3145 3147 3149 3148 3149 3160 3160 3164 3167 3169 3171 3174 3178 3181 3184 3187 3188 3191 3189 3193 3198 3203 3195 3208 3214 3215 3217 3220 3223 3227 3231 3234 3236 3237 3240 3242
3130 3130 3129 3131 3135 3134 3136 3139 3141 3142 3143 3144 3147 3156 3157 3160 3165 3168 3170 3172 3174 3179 3183 3184 3185 3188 3189 3192 3193 3197 3199 3200 3209 3210 3214 3216 3220 3223 3225 3228 3231 3234 3237 3239
3130 3131 3132 3134 3138 3138 3138 3135 3136 3139 3141 3141 3142 3148 3154 3157 3161 3164 3168 3169 3171 3173 3177 3180 3181 3183 3185 3189 3191 3194 3193 3198 3204 3203 3205 3212 3216 3220 3223 3225 3226 3228 3231 3234
3131 3131 3132 3132 3135 3138 3139 3137 3134 3136 3140 3141 3143 3147 3150 3152 3157 3160 3162 3165 3168 3170 3173 3174 3176 3179 3181 3186 3188 3191 3195 3196 3197 3193 3199 3205 3210 3214 3218 3221 3223 3225 3227 3229
3128 3131 3131 3133 3133 3137 3137 3135 3133 3134 3136 3139 3142 3144 3147 3151 3154 3156 3159 3161 3164 3166 3168 3170 3171 3174 3178 3181 3184 3188 3192 3193 3193 3197 3199 3198 3205 3209 3210 3212 3217 3220 3221 3225
3128 3130 3131 3133 3134 3139 3141 3140 3139 3135 3136 3137 3139 3142 3145 3148 3151 3154 3156 3159 3161 3163 3166 3168 3169 3171 3174 3178 3181 3185 3189 3190 3192 3193 3195 3195 3200 3200 3203 3207 3212 3213 3216 3218
3128 3130 3131 3132 3132 3135 3136 3142 3143 3141 3139 3140 3139 3141 3145 3148 3151 3154 3157 3158 3161 3164 3166 3167 3170 3171 3174 3176 3179 3181 3184 3186 3188 3191 3192 3193 3195 3196 3200 3204 3204 3206 3209 3214
3128 3128 3130 3131 3133 3134 3136 3138 3142 3143 3142 3140 3140 3141 3144 3146 3149 3152 3155 3158 3161 3163 3165 3169 3171 3172 3174 3177 3179 3181 3184 3184 3185 3185 3187 3187 3190 3192 3196 3197 3198 3203 3207 3208
3126 3127 3130 3132 3133 3134 3134 3136 3137 3140 3143 3141 3142 3140 3142 3146 3149 3151 3154 3158 3161 3163 3165 3167 3169 3172 3173 3174 3176 3178 3180 3180 3182 3183 3183 3184 3185 3189 3190 3192 3192 3196 3198 3201
3126 3128 3129 3130 3131 3131 3130 3132 3134 3135 3138 3137 3141 3140 3139 3142 3148 3150 3151 3155 3159 3160 3162 3165 3167 3169 3170 3170 3172 3174 3176 3177 3179 3179 3180 3181 3182 3183 3184 3186 3186 3189 3191 3192
3126 3127 3127 3129 3129 3129 3127 3130 3133 3131 3132 3135 3138 3139 3140 3143 3144 3148 3151 3154 3154 3156 3158 3161 3164 3165 3166 3166 3167 3168 3170 3172 3173 3175 3176 3177 3177 3178 3180 3181 3182 3181 3183 3184
3126 3126 3126 3128 3126 3125 3126 3128 3131 3130 3132 3134 3136 3138 3139 3140 3142 3145 3147 3150 3152 3153 3155 3158 3159 3159 3160 3161 3161 3162 3164 3165 3166 3167 3168 3170 3171 3172 3173 3174 3175 3176 3176 3176
3122 3123 3124 3125 3124 3123 3124 3126 3129 3130 3131 3133 3134 3135 3135 3136 3137 3139 3141 3142 3144 3147 3149 3150 3150 3152 3152 3153 3154 3154 3155 3156 3156 3157 3159 3160 3162 3163 3164 3165 3167 3168 3168 3168
3120 3120 3120 3120 3121 3121 3121 3121 3123 3127 3128 3129 3129 3130 3131 3132 3132 3133 3134 3137 3139 3139 3141 3142 3142 3143 3144 3144 3145 3146 3147 3147 3148 3149 3150 3151 3152 3153 3154 3155 3156 3157 3157 3158
3115 3115 3115 3114 3115 3117 3118 3117 3117 3118 3121 3123 3124 3124 3124 3125 3124 3125 3126 3128 3131 3131 3132 3133 3133 3135 3136 3136 3138 3138 3139 3140 3141 3141 3142 3142 3142 3143 3144 3145 3146 3146 3148 3148